Location: *
(35.2348°S, 91.3916°E)
Time: 12:31:20
(UTC+00:00)

Genesis I - Pass Details

Date: 23 October 2019
Orbit: 490 x 534 km, 64.5° (Epoch: 17 November)

Event Time Altitude Azimuth Distance (km) Brightness Sun altitude
Rises 13:49:37 0° 202° (SSW) 2,645 7.6 -18.6°
Reaches altitude 10° 13:51:55 10° 193° (SSW) 1,760 6.5 -19.0°
Maximum altitude 13:55:36 38° 124° (SE) 814 3.9 -19.6°
Enters shadow 13:55:45 38° 118° (ESE) 816 3.9 -19.6°
